DW9665 Sarajevo BA current weather conditions

sailwx.info

Wind from 180 at 6 knots gusting 13

Air temperature 8.9° C
Dewpoint 1.3° C

Last reported at 2016-Feb-13 04:47 UTC.
Time now 2016-Feb-13 06:49 UTC

Location: N 43°50' E 018°21'.
View on Google Maps.

See reports from other nearby stations

  
Tides and Currents Weather Stations Pressure Air Temp Water Temp Dewpoint Dewpoint Depression Visibility Wind Speed Wind Dir Waves Ship Positions
date/time (UTC)wind fromknots sea level pressurealtimeterstation pressurevisibilityair tempwater tempwave heightnotes
2016-Feb-13 04:47 180 6 gusting 13 8.9
2016-Feb-13 04:32 090 6 gusting 12 8.9
2016-Feb-13 04:17 090 4 gusting 17 9.4
2016-Feb-13 04:02 180 12 gusting 17 9.4
2016-Feb-13 03:47 112 6 gusting 14 9.4
2016-Feb-13 03:32 112 5 gusting 21 10.0
2016-Feb-13 03:17 135 11 gusting 17 10.0
2016-Feb-13 03:02 158 9 gusting 23 10.0
2016-Feb-13 02:47 158 14 gusting 26 10.0
2016-Feb-13 02:32 135 9 gusting 19 9.4
2016-Feb-13 02:17 158 10 gusting 22 9.4
2016-Feb-13 02:02 158 15 gusting 25 9.4
2016-Feb-13 01:47 158 9 gusting 21 9.4
2016-Feb-13 01:32 112 12 gusting 18 9.4
2016-Feb-13 01:17 158 6 gusting 21 9.4
2016-Feb-13 01:02 180 9 gusting 28 9.4
2016-Feb-13 00:47 180 13 gusting 19 9.4
2016-Feb-13 00:32 158 4 gusting 13 8.9
2016-Feb-13 00:17 180 5 gusting 7 8.9
2016-Feb-13 00:02 135 8 gusting 27 8.9
2016-Feb-12 23:47 180 6 gusting 17 8.3
2016-Feb-12 23:32 180 3 gusting 8 8.3
2016-Feb-12 23:17 180 2 gusting 8 8.3
2016-Feb-12 23:02 180 3 gusting 9 8.3
2016-Feb-12 22:47 112 2 gusting 12 8.3
2016-Feb-12 22:32 090 8 gusting 15 7.8
2016-Feb-12 22:17 270 2 gusting 8 5.6
2016-Feb-12 22:02 180 0 gusting 5 5.0
2016-Feb-12 21:47 112 0 gusting 4 5.0
2016-Feb-12 21:32 180 1 gusting 5 4.4
2016-Feb-12 21:17 270 2 gusting 4 4.4
2016-Feb-12 21:02 270 3 gusting 5 5.0
2016-Feb-12 20:47 292 5.0
2016-Feb-12 20:32 270 5.6
2016-Feb-12 20:17 270 6.1
2016-Feb-12 20:02 270 6.1
2016-Feb-12 19:47 315 6.7
2016-Feb-12 19:32 6.7
2016-Feb-12 19:17 338 1 gusting 2 6.7
2016-Feb-12 19:02 158 7.2
2016-Feb-12 18:47 090 0 gusting 5 7.2
2016-Feb-12 18:32 270 7.2
2016-Feb-12 18:17 180 7.2
2016-Feb-12 18:02 180 2 gusting 5 7.2
2016-Feb-12 17:47 270 1 gusting 6 7.2
2016-Feb-12 17:32 090 7.2
2016-Feb-12 17:17 180 6 gusting 7 7.2
2016-Feb-12 17:02 158 4 gusting 11 7.2
2016-Feb-12 16:47 135 3 gusting 10 7.2
2016-Feb-12 16:32 180 8 gusting 11 7.8
2016-Feb-12 16:17 158 9 gusting 11 7.8
2016-Feb-12 16:02 135 2 gusting 9 7.8
2016-Feb-12 15:47 158 2 gusting 9 7.8
2016-Feb-12 15:32 112 3 gusting 9 8.3
2016-Feb-12 15:17 180 6 gusting 10 8.3
2016-Feb-12 15:02 292 1 gusting 7 8.9
2016-Feb-12 14:47 158 2 gusting 10 9.4
2016-Feb-12 14:18 112 5 gusting 17 10.0
2016-Feb-12 13:47 112 8 gusting 16 9.4
2016-Feb-12 13:32 068 9 gusting 18 9.4
2016-Feb-12 13:17 068 8 gusting 17 9.4
2016-Feb-12 13:02 135 7 gusting 19 9.4
2016-Feb-12 12:47 180 7 gusting 10 10.0
2016-Feb-12 12:32 135 2 gusting 6 10.0
2016-Feb-12 12:17 270 0 gusting 13 10.0
2016-Feb-12 12:02 112 8 gusting 12 8.9
2016-Feb-12 11:47 090 5 gusting 11 8.3
2016-Feb-12 11:32 180 5 gusting 9 8.3
2016-Feb-12 11:17 158 6 gusting 7 7.8
2016-Feb-12 11:02 090 0 gusting 7 7.8
2016-Feb-12 10:32 270 3 gusting 5 7.2
2016-Feb-12 10:17 180 3 gusting 6 7.2
2016-Feb-12 10:02 180 2 gusting 5 6.7
2016-Feb-12 09:47 292 1 gusting 3 6.1
2016-Feb-12 09:32 270 6.1
2016-Feb-12 09:17 112 1 gusting 2 5.6
2016-Feb-12 09:02 270 1 gusting 2 5.6
2016-Feb-12 08:47 292 1 gusting 3 4.4
2016-Feb-12 08:32 270 1 gusting 2 5.0
2016-Feb-12 08:17 270 4.4
2016-Feb-12 08:02 270 5.0
2016-Feb-12 07:47 270 0 gusting 2 3.9
2016-Feb-12 07:32 270 1 gusting 3 2.8
2016-Feb-12 07:17 292 0 gusting 1 3.3
2016-Feb-12 07:02 270 2.8
2016-Feb-12 06:47 270 2.2
2016-Feb-12 06:32 112 1.7
2016-Feb-12 06:17 045 0.6
2016-Feb-12 06:02 022 0.6
2016-Feb-12 05:47 270 0 gusting 2 0.6
2016-Feb-12 05:32 180 0 gusting 2 1.1
2016-Feb-12 05:17 180 0 gusting 1 1.1
2016-Feb-12 05:02 180 1 gusting 0 1.1
2016-Feb-12 04:47 180 1.7
2016-Feb-12 04:32 180 1.7
2016-Feb-12 04:17 180 1.7
2016-Feb-12 04:02 180 1.7
2016-Feb-12 03:47 158 2.2
2016-Feb-12 03:32 158 2.2
2016-Feb-12 03:17 270 2.2
2016-Feb-12 03:02 270 0 gusting 2 2.8
2016-Feb-12 02:47 270 0 gusting 2 2.8
2016-Feb-12 02:32 270 0 gusting 2 2.8
2016-Feb-12 02:17 292 1 gusting 2 3.3
2016-Feb-12 02:02 068 3.3
2016-Feb-12 01:47 180 3.3
2016-Feb-12 01:32 180 3.3
2016-Feb-12 01:17 270 3.3
2016-Feb-12 01:02 270 3.3
2016-Feb-12 00:47 270 3 gusting 2 3.9
2016-Feb-12 00:32 090 1 gusting 3 3.9
2016-Feb-12 00:17 112 1 gusting 1 3.9
2016-Feb-12 00:02 180 0 gusting 0 3.9
2016-Feb-11 23:47 292 3.9
2016-Feb-11 23:32 270 3.9
2016-Feb-11 23:17 270 1 gusting 2 3.9
2016-Feb-11 23:02 270 3.9
2016-Feb-11 22:47 180 3.9
2016-Feb-11 22:32 180 1 gusting 3 3.9
2016-Feb-11 22:17 112 0 gusting 2 4.4
2016-Feb-11 22:02 158 1 gusting 5 4.4
2016-Feb-11 21:47 158 2 gusting 5 4.4
2016-Feb-11 21:32 090 4 gusting 6 4.4
2016-Feb-11 21:17 158 6 gusting 6 4.4
2016-Feb-11 21:02 135 3 gusting 6 4.4
2016-Feb-11 20:47 090 3 gusting 5 4.4
2016-Feb-11 20:32 112 2 gusting 5 4.4
2016-Feb-11 20:17 158 2 gusting 5 4.4
2016-Feb-11 20:02 068 4 gusting 4 4.4
2016-Feb-11 19:32 090 2 gusting 5 4.4
2016-Feb-11 19:17 090 2 gusting 7 4.4
2016-Feb-11 19:02 135 2 gusting 9 4.4
2016-Feb-11 18:47 158 4 gusting 11 4.4
2016-Feb-11 18:32 158 3 gusting 8 5.0
2016-Feb-11 18:17 135 5 gusting 9 5.0
2016-Feb-11 18:02 135 2 gusting 11 5.0
2016-Feb-11 17:47 180 5 gusting 9 5.0
2016-Feb-11 17:32 090 4 gusting 6 5.0
2016-Feb-11 17:17 135 3 gusting 9 5.0
2016-Feb-11 17:02 112 3 gusting 9 5.6
2016-Feb-11 16:47 135 5 gusting 9 5.6
2016-Feb-11 16:32 112 5 gusting 11 5.6
2016-Feb-11 16:17 135 5 gusting 9 5.6
2016-Feb-11 16:02 158 4 gusting 7 6.1
2016-Feb-11 15:47 180 3 gusting 11 6.7
2016-Feb-11 15:32 112 7 gusting 10 6.7
2016-Feb-11 15:17 158 5 gusting 6 7.2
2016-Feb-11 15:02 180 7.8
2016-Feb-11 14:47 135 1 gusting 5 7.8
2016-Feb-11 14:32 068 0 gusting 1 8.3
2016-Feb-11 14:17 338 8.3
2016-Feb-11 14:02 180 7.8
2016-Feb-11 13:47 158 7.8
2016-Feb-11 13:32 338 7.8
2016-Feb-11 13:17 338 1 gusting 0 8.3
2016-Feb-11 13:02 180 7.8
2016-Feb-11 12:47 270 2 gusting 4 7.2
2016-Feb-11 12:32 270 1 gusting 3 7.2
2016-Feb-11 12:17 180 1 gusting 1 7.2
2016-Feb-11 12:02 7.2
2016-Feb-11 11:47 270 1 gusting 3 6.7
2016-Feb-11 11:32 180 0 gusting 3 6.1
2016-Feb-11 11:17 270 0 gusting 2 6.7
2016-Feb-11 11:02 270 6.1
2016-Feb-11 10:47 315 1 gusting 2 5.6
2016-Feb-11 10:32 180 2 gusting 3 5.6
2016-Feb-11 10:17 270 5.6
2016-Feb-11 10:02 180 5.0
2016-Feb-11 09:47 292 3.9
2016-Feb-11 09:32 270 0 gusting 2 3.9
2016-Feb-11 09:17 292 3.9
2016-Feb-11 09:02 270 3.3
2016-Feb-11 08:47 112 2.8
2016-Feb-11 08:32 112 0 gusting 0 2.2
2016-Feb-11 08:17 270 1.7
2016-Feb-11 08:02 338 1.7
2016-Feb-11 07:47 270 1.1
2016-Feb-11 07:32 338 1.1
2016-Feb-11 07:17 158 1.1
2016-Feb-11 07:02 180 0 gusting 2 1.1
2016-Feb-11 06:47 068 0.6
2016-Feb-11 06:32 135 0.6
2016-Feb-11 06:17 270 -0.0
2016-Feb-11 06:02 180 1 gusting 5 -0.0